Location: Northcutt
(34.7304°N, 84.4305°W)
Time: 11:08:10
(UTC+00:00)

A-11 Canister half - Pass Details

Date: 03 October 2022
Orbit: 1524 x 1685 km, 47.3° (Epoch: 30 November)

Event Time Altitude Azimuth Distance (km) Brightness Sun altitude
Rises 21:07:29 0° 250° (WSW) 4,669 12.9 25.2°
Reaches altitude 10° 21:10:36 10° 254° (WSW) 3,684 12.9 24.6°
Maximum altitude 21:19:43 60° 333° (NNW) 1,716 9.7 22.9°
Drops below altitude 10° 21:29:01 10° 53° (NE) 3,738 10.5 21.1°
Sets 21:32:12 0° 57° (ENE) 4,742 11.0 20.5°
